Location: T�bingen+AIT
(48.5342°N, 9.0700°E)
Time: 01:50:30
(UTC+02:00)

Helios 1B rocket - Pass Details

Date: 14 September 2017
Orbit: 577 x 586 km, 98.2° (Epoch: 23 September)

Event Time Altitude Azimuth Distance (km) Brightness Sun altitude
Rises 20:57:32 0° 28° (NNE) 2,813 5.9 -13.6°
Reaches altitude 10° 21:00:17 10° 48° (NE) 1,909 4.8 -14.0°
Enters shadow 21:02:02 16° 72° (ENE) 1,537 4.1 -14.3°
